Location: North Evanston
(42.0634°N, 87.6976°W)
Time: 21:37:29
(UTC+00:00)

Transit 2A - Pass Details

Date: 12 May 2026
Orbit: 595 x 948 km, 66.7° (Epoch: 9 June)

Event Time Altitude Azimuth Distance (km) Brightness Sun altitude
Rises 05:46:05 0° 338° (NNW) 3,237 10.2 -29.8°
Reaches altitude 10° 05:49:15 10° 356° (N) 2,235 9.3 -29.8°
Maximum altitude 05:52:50 19° 42° (NE) 1,620 8.1 -29.8°
Enters shadow 05:55:10 14° 77° (ENE) 1,841 8.1 -29.8°
Drops below altitude 10° 05:56:12 10° 88° (E) 2,077 - -29.7°
Sets 05:59:00 0° 106° (ESE) 2,932 - -29.7°
